[[{"header":{"parameterUnit":"m.s-1","parameterCategory":1,"la1":30.2991,"la2":30.254,"lo1":-89.0895,"lo2":-89.0444,"dy":0.0017,"dx":0.0017,"nx":28,"ny":28,"refTime":"2025-07-10T09:00:00:Z","depth":0,"parameterNumber":2,"parameterNumberName":"U-component_of_WINDS"},"data":[0,0,0,0,0,0,0,0,0,0,0,0,0,0,0,0,0,0,0,0,0,0,0,0,0,0,0,0,0,0,0,0,0,0,0,0,0,0,0,0,0,0,0,0,0,0,0,0,0,0,0,0,0,0,0,0,0,0,2.9351,2.9352,0,2.9447,2.9449,2.945,2.9406,2.9403,2.9401,2.9399,2.9499,2.9504,2.9509,0,0,0,0,0,0,0,0,0,0,0,0,0,2.913,2.9134,2.9351,2.9352,2.9353,2.9447,2.9449,2.945,2.9406,2.9403,2.94,2.9398,2.9498,2.9503,2.9509,0,0,0,0,0,0,0,0,0,0,0,0,0,2.9226,2.9135,2.9351,2.9343,2.9343,2.9447,2.9449,2.945,2.9407,2.9403,2.94,2.9396,2.9496,2.9503,2.951,2.9628,0,0,2.9533,2.9536,0,0,0,0,0,0,0,0,2.9221,2.9234,2.9343,2.9343,2.9344,2.9411,2.9407,2.951,2.9408,2.9383,2.9399,2.9395,2.9473,2.9482,2.9508,2.9633,2.9637,2.9533,2.9538,2.9541,2.9543,0,0,0,0,0,0,0,2.9214,2.923,2.9389,2.9344,2.9345,2.9335,2.9345,2.9427,2.9447,2.9385,2.9382,2.9394,2.9472,2.9501,2.951,2.9638,2.9533,2.954,2.9544,2.9547,2.9864,2.9868,0,0,0,0,0,0,2.9207,2.9225,2.9386,2.9392,2.9272,2.9342,2.9353,2.9393,2.9446,2.945,2.9397,2.9391,2.949,2.9501,2.9513,2.9654,2.9541,2.9548,2.9552,2.986,2.9865,2.9869,0,0,0,0,0,0,2.9203,2.9222,2.9382,2.9308,2.9327,2.9349,2.9395,2.9397,2.9425,2.9455,2.9458,2.9422,2.9488,2.9503,2.9599,2.9657,2.9551,2.9558,2.9855,2.9862,2.9867,2.9936,0,0,0,0,0,0,2.9197,2.9221,2.9265,2.9309,2.9331,2.9466,2.9399,2.9401,2.9438,2.9432,2.9479,2.9484,2.9486,2.9589,2.9607,2.9665,2.9564,2.985,2.9858,2.9865,2.9929,2.9944,2.9956,0,0,0,0,0,2.9189,2.9281,2.9268,2.9288,2.9387,2.947,2.9482,2.9483,2.9443,2.9488,2.9507,2.9482,2.9648,2.9599,2.9619,2.968,2.9847,2.9856,2.9865,2.9922,2.9941,2.9956,0,0,0,0,0,0,2.9244,2.9287,2.9272,2.9382,2.9422,2.9462,2.9519,2.9502,2.9555,2.9547,2.9546,2.9557,2.9657,2.9678,2.9623,2.9797,2.9741,2.9755,2.9778,2.9796,2.981,2.9801,2.957,0,0,0,0,0,2.9269,2.9332,2.9366,2.9459,2.948,2.9496,2.9532,2.9529,2.9571,2.9588,2.9614,2.9657,2.9718,2.9759,2.9817,2.9933,2.9942,2.9985,2.9998,3.001,3.0021,3.0082,3.0101,2.9899,2.9899,2.9899,0,0,2.9321,2.9352,2.9392,2.9471,2.9502,2.9567,2.9511,2.9583,2.9631,2.9599,2.9691,2.9712,2.976,2.9866,2.9914,2.9887,3.0079,3.0021,3.003,3.0035,3.0094,3.0113,3.013,2.9905,2.9904,2.9903,0,0,2.9449,2.9479,2.9559,2.9592,2.964,2.965,2.9669,2.9712,2.9724,2.9817,2.9794,2.9853,2.9959,2.9993,3.0024,3.0166,3.0145,3.0186,3.0257,3.0317,3.0333,3.0347,3.0397,3.0414,3.0197,3.0197,3.0197,0,2.9507,2.9604,2.9603,2.9676,2.9711,2.9686,2.9767,2.9799,2.9864,2.9889,2.9858,2.999,3.0021,3.0134,3.0168,3.0195,3.0217,3.0179,3.0331,3.0345,3.0358,3.0405,3.0424,3.0201,3.0201,3.0201,3.02,0,2.9673,2.9741,2.98,2.9863,2.9905,2.9982,2.9993,3.0036,3.003,3.0043,3.0138,3.0173,3.0238,3.0265,3.026,3.0378,3.036,3.0331,3.0274,3.0382,3.0426,3.0444,3.0208,3.0206,3.0205,3.0204,0,0,2.9837,2.9898,2.9919,2.9947,2.9999,3.0051,3.0127,3.019,3.0227,3.0273,3.0336,3.0427,3.04,3.0436,3.0434,3.0488,3.0596,3.0452,3.0453,3.0476,3.0728,3.0748,3.0769,3.0584,3.0587,3.059,3.0723,0,2.9967,3.0099,3.0101,3.0222,3.0285,3.0262,3.0328,3.0367,3.0383,3.0438,3.0455,3.0519,3.0479,3.05,3.0552,3.0572,3.0646,3.0563,3.0642,3.0645,3.0628,3.0792,3.0814,3.0937,3.074,3.0743,3.0745,0,3.0135,3.0186,3.0314,3.0356,3.0382,3.0442,3.0499,3.0553,3.0597,3.0604,3.0644,3.0635,3.0713,3.0656,3.0763,3.0706,3.0739,3.0754,3.0759,3.0765,3.07,3.08,3.0977,3.0995,3.0773,3.0771,3.0769,0,3.024,3.034,3.0429,3.0454,3.0506,3.0548,3.0572,3.0612,3.065,3.0701,3.0725,3.0785,3.0817,3.0864,3.0871,3.0829,3.0979,3.0922,3.0986,3.0986,3.1017,3.1014,3.1199,3.1042,3.1041,3.1041,3.1041,0,3.0383,3.0462,3.0477,3.0531,3.0619,3.0621,3.0708,3.0728,3.0765,3.0823,3.0808,3.0863,3.087,3.0928,3.0934,3.1021,3.1037,3.1045,3.1045,3.1045,3.1044,3.1065,3.1055,3.1046,3.1045,3.1044,3.1043,0,3.0514,3.0527,3.0622,3.0664,3.0676,3.0738,3.0774,3.0826,3.084,3.0915,3.0932,3.0955,3.1021,3.1034,3.1113,3.1117,3.1221,3.1213,3.1205,3.1204,3.1266,3.1259,3.1469,3.1496,3.1323,3.1325,3.1326,0,3.0603,3.0663,3.0711,3.0749,3.0774,3.0836,3.0874,3.0879,3.0919,3.0974,3.102,3.1085,3.1137,3.1245,3.1268,3.1329,3.1321,3.1391,3.133,3.1328,3.132,3.1316,3.1321,3.1402,3.1404,3.1405,3.1406,0,3.0761,3.0764,3.082,3.0878,3.0923,3.0969,3.1013,3.1045,3.1056,3.1102,3.117,3.121,3.1291,3.1355,3.1416,3.144,3.1425,3.1426,3.1443,3.1442,3.1434,3.1438,3.1235,3.142,3.1419,3.1418,3.1417,3.1417,3.0872,3.0924,3.0965,3.1028,3.1061,3.1102,3.1153,3.1173,3.123,3.1295,3.1295,3.1369,3.1412,3.1491,3.152,3.1578,3.1556,3.1582,3.1588,3.1594,3.1599,3.1427,3.1589,3.1589,3.1589,3.1588,3.1588,0,3.1027,3.1053,3.111,3.1171,3.122,3.1202,3.125,3.1291,3.1356,3.1398,3.1449,3.1527,3.159,3.1618,3.168,3.1721,3.1716,3.1737,3.1733,3.1739,3.1616,3.1593,3.174,3.174,3.174,3.174,3.174,3.174,3.1113,3.12,3.1208,3.1311,3.1337,3.1408,3.1437,3.1474,3.1507,3.1594,3.1646,3.1664,3.1701,3.1765,3.1822,3.1829,3.1851,3.1876,3.1879,3.1763,3.1748,3.1733,3.1712,3.1881,3.1881,3.1997,3.1998,3.1999]},{"header":{"parameterUnit":"m.s-1","parameterCategory":1,"la1":30.2991,"la2":30.254,"lo1":-89.0895,"lo2":-89.0444,"dy":0.0017,"dx":0.0017,"nx":28,"ny":28,"refTime":"2025-07-10T09:00:00:Z","depth":0,"parameterNumber":3,"parameterNumberName":"V-component_of_WINDS"},"data":[0,0,0,0,0,0,0,0,0,0,0,0,0,0,0,0,0,0,0,0,0,0,0,0,0,0,0,0,0,0,0,0,0,0,0,0,0,0,0,0,0,0,0,0,0,0,0,0,0,0,0,0,0,0,0,0,0,0,0.623,0.6232,0,0.639,0.6391,0.6393,0.6418,0.6416,0.6415,0.6413,0.6585,0.659,0.6596,0,0,0,0,0,0,0,0,0,0,0,0,0,0.5954,0.5959,0.623,0.6232,0.6234,0.6389,0.6391,0.6394,0.6418,0.6416,0.6414,0.6413,0.6583,0.659,0.6597,0,0,0,0,0,0,0,0,0,0,0,0,0,0.609,0.5961,0.623,0.6265,0.6269,0.6389,0.6392,0.6394,0.6418,0.6416,0.6414,0.6412,0.658,0.6589,0.6598,0.6696,0,0,0.6625,0.6629,0,0,0,0,0,0,0,0,0.6082,0.61,0.6257,0.6262,0.6268,0.6381,0.6357,0.6496,0.6419,0.6362,0.6413,0.6411,0.6519,0.6533,0.6568,0.6704,0.6711,0.6626,0.6631,0.6635,0.6637,0,0,0,0,0,0,0,0.6073,0.6093,0.6293,0.626,0.6266,0.6275,0.6292,0.6383,0.6451,0.6367,0.6369,0.6387,0.6522,0.6559,0.6572,0.6714,0.6625,0.6633,0.6639,0.6642,0.694,0.6943,0,0,0,0,0,0,0.6056,0.6085,0.6288,0.6298,0.6168,0.6282,0.63,0.6347,0.645,0.6464,0.6389,0.6388,0.6545,0.6562,0.6578,0.6701,0.6635,0.6643,0.6648,0.6938,0.6941,0.6944,0,0,0,0,0,0,0.605,0.6074,0.6282,0.6192,0.6219,0.6289,0.6341,0.6352,0.6389,0.6467,0.648,0.6414,0.6544,0.6566,0.6666,0.6707,0.6647,0.6655,0.6935,0.6939,0.6942,0.6947,0,0,0,0,0,0,0.6042,0.6071,0.6108,0.6193,0.6224,0.6365,0.6343,0.6356,0.6403,0.6403,0.6494,0.6507,0.6544,0.6653,0.6675,0.6718,0.6662,0.6931,0.6936,0.6941,0.6943,0.695,0.6956,0,0,0,0,0,0.6032,0.6104,0.6109,0.6134,0.627,0.6367,0.6385,0.6424,0.6406,0.6445,0.6495,0.6504,0.6699,0.6663,0.6688,0.6735,0.6929,0.6935,0.6941,0.694,0.6949,0.6956,0,0,0,0,0,0,0.6025,0.6116,0.6123,0.6224,0.6287,0.6371,0.642,0.6432,0.6504,0.6501,0.6549,0.6569,0.6668,0.6711,0.667,0.6836,0.6813,0.6824,0.6804,0.6813,0.6819,0.6807,0.6669,0,0,0,0,0,0.6034,0.6103,0.618,0.6262,0.6293,0.6351,0.6395,0.6419,0.6488,0.6515,0.6573,0.6641,0.6718,0.6768,0.6842,0.6949,0.697,0.6994,0.7,0.7005,0.7015,0.7076,0.7088,0.6963,0.6963,0.6963,0,0,0.6057,0.6115,0.6155,0.6262,0.6314,0.6386,0.6374,0.6451,0.6505,0.6528,0.6626,0.667,0.675,0.6854,0.6903,0.6894,0.7054,0.7013,0.7016,0.7023,0.7083,0.7095,0.7105,0.6967,0.6966,0.6965,0,0,0.6133,0.6183,0.6257,0.6309,0.6386,0.6425,0.6442,0.6524,0.6554,0.6652,0.6671,0.6738,0.6869,0.6925,0.697,0.7068,0.708,0.7091,0.7126,0.7185,0.7195,0.7204,0.724,0.7252,0.71,0.71,0.71,0,0.6151,0.6258,0.6295,0.637,0.6418,0.6439,0.6516,0.6565,0.6664,0.6698,0.6685,0.6849,0.6904,0.7022,0.7046,0.7082,0.7106,0.7082,0.719,0.7199,0.7208,0.7244,0.7257,0.7101,0.7101,0.7101,0.7101,0,0.6277,0.6351,0.6402,0.6494,0.6548,0.6624,0.6674,0.6724,0.6744,0.6784,0.6885,0.6951,0.704,0.707,0.7091,0.7192,0.7183,0.7179,0.7158,0.722,0.7254,0.7268,0.7102,0.7102,0.7102,0.7102,0,0,0.6355,0.6466,0.6484,0.6526,0.6613,0.6673,0.6751,0.6835,0.6877,0.6945,0.7013,0.7123,0.712,0.7172,0.7199,0.7251,0.7325,0.7241,0.7244,0.7256,0.7442,0.7445,0.746,0.7333,0.7336,0.7338,0.7436,0,0.6443,0.6579,0.6615,0.6732,0.6802,0.6823,0.6891,0.6953,0.6993,0.706,0.7105,0.7182,0.7171,0.7203,0.7254,0.7305,0.7364,0.7299,0.74,0.7403,0.738,0.7478,0.7482,0.7571,0.745,0.7452,0.7453,0,0.6564,0.6632,0.6755,0.6833,0.6864,0.6924,0.7004,0.7067,0.7139,0.7164,0.7222,0.7244,0.7329,0.7301,0.7419,0.7374,0.7417,0.7449,0.7453,0.7465,0.7433,0.7494,0.76,0.7614,0.7474,0.7473,0.7471,0,0.661,0.6732,0.6822,0.6857,0.695,0.6992,0.7034,0.7103,0.7151,0.7223,0.7255,0.7336,0.7381,0.7444,0.7489,0.7464,0.7604,0.758,0.763,0.7629,0.766,0.7658,0.7776,0.7685,0.7685,0.7685,0.7684,0,0.6705,0.6781,0.6844,0.6899,0.6984,0.7025,0.7109,0.7152,0.7213,0.7279,0.7303,0.7365,0.7419,0.7489,0.7525,0.7618,0.7638,0.7663,0.7672,0.7662,0.7659,0.7692,0.7688,0.7688,0.7687,0.7687,0.7686,0,0.6772,0.6817,0.6916,0.6995,0.7017,0.7076,0.7146,0.7202,0.7241,0.7324,0.7347,0.741,0.7494,0.7544,0.7651,0.7675,0.7778,0.7784,0.7753,0.7758,0.7806,0.7801,0.7951,0.7973,0.7866,0.7867,0.7868,0,0.683,0.6888,0.6973,0.7017,0.7058,0.713,0.7179,0.7221,0.7272,0.7358,0.7404,0.7488,0.7558,0.7691,0.7749,0.7831,0.784,0.7886,0.7853,0.7841,0.7842,0.7839,0.7846,0.7893,0.7894,0.7894,0.7895,0,0.693,0.6949,0.7017,0.7093,0.715,0.7213,0.7276,0.7312,0.7366,0.7422,0.7506,0.756,0.7668,0.7752,0.7839,0.7885,0.79,0.7905,0.7921,0.7912,0.7892,0.7905,0.7771,0.7902,0.7901,0.7901,0.79,0.79,0.6996,0.7048,0.7115,0.7191,0.7242,0.73,0.7356,0.7402,0.7472,0.7561,0.7583,0.7672,0.7744,0.7861,0.7908,0.7981,0.7974,0.7997,0.8003,0.8008,0.801,0.7879,0.7996,0.7996,0.7996,0.7996,0.7996,0,0.7097,0.7141,0.721,0.7296,0.7356,0.7361,0.7431,0.7482,0.7559,0.7623,0.7691,0.7788,0.787,0.7933,0.8018,0.8064,0.8073,0.8085,0.8083,0.8093,0.8011,0.7989,0.8076,0.8076,0.8076,0.8076,0.8076,0.8076,0.7158,0.7247,0.7274,0.739,0.7434,0.7519,0.7559,0.7614,0.7665,0.7772,0.7839,0.7878,0.7943,0.8032,0.8109,0.8125,0.8156,0.8167,0.8185,0.8108,0.8099,0.8091,0.807,0.8173,0.8173,0.8262,0.8262,0.8263]}]]